Back to catalog

COSMOS 2117

AliveMilitaryPO
NORAD 21031·PAYLOAD·🇷🇺 Russia

Launched Dec 22, 1990 from Plesetsk Cosmodrome

Loading…

Next Passes (next 24 hours)

TLE

FreshSource: Space-Track

Epoch: Sep 14, 2026, 02:33 UTC

1 21031U 90114D   26257.10626256  .00000040  00000-0  15969-3 0  9999
2 21031  82.5764 140.3258 0007133 221.4628 292.9729 12.65033480649510

Track COSMOS 2117 in real time with AllMySat

Download on the App Store